Location: Belltown
(34.0117°N, 117.3834°W)
Time: 04:17:11
(UTC+00:00)

Daily predictions for brighter satellites

Satellite Brightness Start Highest point End
(mag) Time Altitude Azimuth Time Altitude Azimuth Time Altitude Azimuth
Milstar 3 Cent rocket 3.9 02:00:43 10° SW 02:08:40 30° SSE 02:13:35 10° ESE
Cosmos 2112 Rocket 4.1 02:04:50 10° N 02:10:00 61° ENE 02:15:10 10° SSE
Longmarch 3A Rocket 2.8 02:09:27 10° S 02:10:26 13° SSE 02:11:41 10° SE
Cosmos 1900 4.4 02:05:30 10° NNW 02:10:42 83° ENE 02:15:49 10° SSE
Cosmos 1943 3.6 02:07:16 10° N 02:12:38 43° ENE 02:18:00 10° SE
Cosmos 1680 Rocket 3.5 02:07:51 10° NNW 02:13:05 79° ENE 02:18:20 10° SSE
USA 234 4.4 02:10:02 10° ENE 02:14:54 22° ESE 02:19:46 10° S
Cosmos 158 Rocket 4.0 02:10:56 10° NNW 02:16:10 86° WSW 02:21:13 10° SSE
Iridium 4 Rocket 3.4 02:11:37 10° S 02:16:24 77° E 02:21:42 10° N
Helios 1A Rocket 3.0 02:12:22 10° SSE 02:16:27 88° W 02:20:35 10° NNW
Cosmos 1975 Rocket 3.6 02:13:59 10° NNE 02:17:59 35° E 02:21:55 10° SSE
Meteor 2-11 Rocket 4.5 02:12:42 10° S 02:18:50 83° E 02:25:01 10° N
COSMO-SKYMED 1 4.1 02:19:32 10° N 02:23:38 42° WNW 02:27:42 10° SW
CSL-04 Rocket 4.2 02:19:10 10° SE 02:24:07 39° ENE 02:29:11 10° N
HJ-1C 4.3 02:27:22 10° SE 02:30:11 27° ENE 02:33:00 10° NNE
H-2A R/B 2.4 02:30:57 10° SW 02:32:21 19° SSE 02:33:47 13° ESE
Cosmos 1603 3.6 02:29:00 10° NNW 02:34:41 81° ENE 02:40:16 10° SSE
SJ 16-02 4.5 02:32:58 10° W 02:35:23 14° WNW 02:37:49 10° NNW
Sich 1 Rocket 3.5 02:32:33 10° S 02:36:59 71° E 02:41:30 10° NNE
Cosmos 1975 4.2 02:33:33 10° SSW 02:37:26 43° W 02:41:20 10° N
H-2A R/B 2.3 02:33:23 10° SE 02:38:00 42° ENE 02:42:43 10° N
Okean 2 3.7 02:37:07 10° NNW 02:41:16 70° W 02:45:22 10° S
Meteor 1-21 4.1 02:36:10 10° N 02:41:47 79° E 02:47:22 10° S
Cosmos 1072 Rocket 4.5 02:37:20 10° S 02:43:26 63° E 02:49:39 10° NNE
Cosmos 1842 3.7 02:41:23 10° NNW 02:45:13 65° W 02:49:03 10° S
Meteor 1-12 Rocket 4.3 02:39:24 10° S 02:45:14 61° E 02:51:00 10° NNE
ATLAS 2AS CENTAUR R/B 3.8 02:40:35 10° SSE 02:46:52 27° ESE 02:53:16 10° NE
CZ-4 R/B 2.1 02:43:40 10° S 02:47:49 59° W 02:51:59 10° NNW
BREEZE-M DEB (TANK) 4.4 02:47:00 10° NNW 02:50:08 26° NE 02:54:11 17° E
Cosmos 2034 Rocket 4.3 02:44:13 10° SSE 02:50:12 45° E 02:56:10 10° NNE
Okean 2 Rocket 3.0 02:48:50 10° S 02:53:17 67° E 02:57:45 10° NNE
Cosmos 1707 2.8 02:51:32 10° N 02:55:16 49° E 02:58:23 14° SSE
Cosmos 1300 Rocket 3.4 02:51:19 10° S 02:55:40 69° E 03:00:03 10° NNE
CENTAUR R/B 4.4 02:51:07 10° N 02:57:31 24° NE 03:01:27 18° ENE
GOES 2 Rocket 3.8 02:54:36 10° SW 02:58:24 33° S 03:00:00 25° SE
Ariane Rocket 3.9 02:56:56 23° ESE 02:58:41 29° ENE 03:03:01 10° N
Okean-O 4.4 02:59:47 10° SSW 03:03:48 34° W 03:07:50 10° NNW
YAOGAN 1 3.7 03:00:40 10° S 03:04:49 46° W 03:08:59 10° NNW
DELTA 2 R/B (1) 3.6 03:01:24 10° WNW 03:06:57 80° SSW 03:09:53 29° ESE
SJ-6B 4.3 03:08:51 20° NE 03:08:51 20° NE 03:10:41 10° NNE
ARGOS 3.1 03:02:52 10° SSE 03:08:09 65° ENE 03:13:28 10° N
SL-08 RB Rocket 4.0 03:09:03 30° SE 03:10:51 46° ENE 03:15:13 10° N
ATLAS 5 CENTAUR R/B 3.3 03:07:20 10° NW 03:11:20 87° SW 03:26:31 10° SSE
In-Cosmos 22 4.1 03:06:45 10° N 03:12:00 59° E 03:15:58 18° SSE
USA 186 3.3 03:14:50 24° NNE 03:14:50 24° NNE 03:16:27 10° N
CZ-2C R/B 3.7 03:10:38 10° S 03:15:41 58° W 03:21:03 10° NNW
Cosmos 2298 Rocket 4.3 03:11:41 10° SSW 03:16:59 69° WNW 03:22:19 10° NNE
CZ-2C R/B 2.7 03:12:53 10° NNE 03:18:25 62° ESE 03:23:57 10° S
Cosmos 1536 Rocket 3.6 03:17:49 10° N 03:22:12 54° E 03:22:45 50° ESE
MOS 1 Rocket 4.2 03:19:22 10° N 03:23:32 46° WNW 03:27:37 10° SSW
Cosmos 1025 Rocket 2.9 03:22:25 10° N 03:26:50 87° E 03:28:46 33° S
Cosmos 2285 Rocket 3.8 03:25:24 10° S 03:31:39 76° ESE 03:37:58 10° NNE
Cosmos 1844 3.7 03:26:41 10° SSW 03:32:24 81° WNW 03:38:06 10° NNE
Cosmos 2151 Rocket 4.2 03:30:45 10° SSW 03:35:04 55° W 03:39:29 10° N
Cosmos 1844 Rocket 3.2 03:31:21 10° SW 03:36:48 57° WNW 03:42:18 10° NNE
Cosmos 1867 3.8 03:34:56 10° NW 03:40:21 68° WSW 03:42:28 37° S
NOSS 3-2 (A) 4.2 03:33:27 10° NNW 03:41:11 60° ENE 03:43:55 43° ESE
CZ-2C R/B 1.9 03:38:50 10° W 03:41:25 45° W 03:41:25 45° W
MetOp-A 4.0 03:49:02 72° E 03:49:16 73° ENE 03:54:37 10° N
Cosmos 1092 Rocket 3.9 03:43:38 10° N 03:49:43 58° E 03:49:45 58° E
Cosmos 1125 Rocket 4.1 03:44:50 10° SSW 03:50:01 56° WNW 03:55:16 10° N
Cosmos 2026 Rocket 4.5 03:48:08 10° N 03:53:11 43° NE 03:53:11 43° NE
MOS 1 4.2 03:53:26 61° SSE 03:54:29 88° ENE 04:00:13 10° NNW
USA 234 3.3 03:52:10 12° NE 03:58:13 80° NW 04:04:46 10° SW
Resurs 01 Rocket 4.1 04:14:24 14° N 04:14:24 14° N 04:15:03 10° N
NOSS 3-4 (A) 3.6 04:09:02 10° SW 04:14:50 66° WNW 04:18:10 27° NNE
NOSS 3-4 (C) 3.5 04:09:08 10° SW 04:14:56 67° WNW 04:17:40 33° NNE
NOSS 3-2 (C) 4.1 04:09:09 10° NNW 04:16:57 64° ENE 04:17:17 64° ENE
ATLAS 2A CENTAUR R/B 4.5 03:28:52 10° W 04:28:23 62° SSW 04:32:29 49° SSE
ATLAS 2AS CENTAUR R/B 3.4 04:29:36 10° SW 04:37:22 60° WNW 04:45:13 10° NNE
Milstar 3 Cent rocket 4.1 04:41:03 10° WSW 04:43:05 20° WSW 04:43:05 20° WSW
CENTAUR R/B 3.2 04:40:45 10° NNW 04:48:39 80° NW 04:48:39 80° NW
ATLAS 3B R/B 4.2 04:51:04 10° NNW 04:54:32 27° N 04:54:32 27° N
USA 267 4.5 10:06:14 10° NE 10:09:48 35° NNE 10:09:48 35° NNE
Cosmos 1980 Rocket 3.9 10:34:34 27° NNE 10:34:34 27° NNE 10:37:01 10° NNE
Cosmos 2322 Rocket 4.3 10:37:25 18° ESE 10:38:42 20° E 10:42:42 10° NE
SL-16 R/B 3.6 10:47:26 30° ESE 10:47:52 31° ESE 10:52:46 10° NE
ARIANE 5 R/B 4.4 10:51:18 10° N 10:53:01 22° N 10:53:01 22° N
Cosmos 1934 Rocket 4.2 10:51:36 10° N 10:57:12 64° ENE 10:57:12 64° ENE
CZ-2C R/B 4.4 10:57:10 10° NE 11:01:32 27° E 11:04:21 17° SE
IDEFIX/ARIANE 42P 3.8 10:57:54 10° N 11:00:51 35° N 11:00:51 35° N
SJ 16-02 3.6 11:03:47 10° NNE 11:07:21 24° ENE 11:10:53 10° ESE
H-2A R/B 3.9 11:07:39 10° SE 11:11:27 31° ENE 11:15:20 10° N
Meteor 2-6 Rocket 4.3 11:14:54 73° ESE 11:15:05 74° E 11:20:51 10° NNE
Cosmos 1238 Rocket 3.8 11:10:53 10° N 11:17:24 87° E 11:17:48 79° SSE
X-37B 3.9 11:23:28 11° NNE 11:23:28 11° NNE 11:23:50 10° NNE
Lacrosse 5 4.2 11:24:36 12° NNW 11:24:36 12° NNW 11:25:53 10° N
Cosmos 1605 Rocket 4.2 11:18:41 10° N 11:25:06 71° E 11:31:27 10° SSE
Cosmos 1535 Rocket 4.4 11:20:10 10° N 11:26:33 75° W 11:27:41 60° SSW
Skynet4D Del rocket 4.4 11:27:38 39° SSE 11:27:38 39° SSE 11:32:20 10° ESE
PAYLOAD A 4.3 11:24:54 10° NNE 11:29:31 58° E 11:30:36 46° SSE
Meteor 1-17 Rocket 4.5 11:24:52 10° N 11:30:24 84° W 11:31:10 67° S
Cosmos 468 Rocket 4.0 11:30:16 71° SSE 11:30:48 81° ESE 11:36:06 10° NNE
Cosmos 1812 4.4 11:56:57 21° NNW 11:56:57 21° NNW 11:58:30 10° N
